Location: Unspecified
(29.9680°N, 0.0000°E)
Time: 07:12:16
(UTC+00:00)

A-11 Canister half - Pass Details

Date: 20 June 2019
Orbit: 1526 x 1683 km, 47.3° (Epoch: 19 July)

Event Time Altitude Azimuth Distance (km) Brightness Sun altitude
Rises 11:48:27 0° 309° (NW) 4,678 11.5 82.8°
Reaches altitude 10° 11:51:28 10° 309° (NW) 3,700 11.1 83.1°
Maximum altitude 12:00:49 83° 222° (SW) 1,562 12.3 83.5°
Drops below altitude 10° 12:10:24 10° 136° (SE) 3,783 11.3 83.2°
Sets 12:13:31 0° 135° (SE) 4,788 11.6 82.9°
